Location: Bosdarros
(43.2167°N, 0.3667°W)
Time: 11:49:13
(UTC+00:00)

FENGYUN 1C DEB - Pass Details

Date: 26 October 2021
Orbit: 805 x 871 km, 98.8° (Epoch: 26 November)

Event Time Altitude Azimuth Distance (km) Brightness Sun altitude
Exits shadow 20:14:54 32° 260° (W) 1,357 ? -35.6°
Maximum altitude 20:15:03 32° 264° (W) 1,356 ? -35.6°
Drops below altitude 10° 20:19:47 10° 327° (NNW) 2,406 ? -36.5°
Sets 20:22:23 0° 337° (NNW) 3,349 ? -36.9°
